Location: Newark
(48.1500°N, 13.1167°E)
Time: 08:47:18
(UTC+00:00)

KAITUO 1B - Pass Details

Date: 06 December 2021
Orbit: 486 x 507 km, 97.4° (Epoch: 18 January)

Event Time Altitude Azimuth Distance (km) Brightness Sun altitude
Rises 05:40:06 0° 14° (NNE) 2,630 ? -10.0°
Reaches altitude 10° 05:42:13 10° 16° (NNE) 1,737 ? -9.7°
Maximum altitude 05:45:57 76° 102° (ESE) 528 ? -9.1°
Drops below altitude 10° 05:49:38 10° 189° (S) 1,710 ? -8.6°
Sets 05:51:42 0° 191° (S) 2,584 ? -8.3°
